Wind_Speed
8 8 8 7 6 5 4 2 2 3 4 4 5 5 6 7 8 7 8 8 9 11 12 14 16 18 20 21 23 25 26 28 30 32 33 35 36 37 38 40 41 42 43 44 44 45 45 45 45
11 10 10 9 8 7 5 4 4 4 4 4 4 5 5 6 8 8 9 11 13 14 16 18 19 21 23 25 26 28 30 32 33 35 36 38 39 41 42 43 44 46 47 48 49 49 50 50 51
12 11 10 9 8 8 6 5 4 4 4 4 4 5 6 7 9 11 12 14 16 18 19 21 22 24 25 27 29 30 32 34 36 37 39 41 42 44 45 47 48 49 50 52 53 53 54 55 55
11 10 10 9 8 7 6 5 4 4 3 4 5 6 9 11 12 14 16 17 19 20 21 23 24 26 27 29 31 33 34 36 38 40 42 43 45 47 49 51 52 54 55 56 57 58 59 60 60
10 9 9 8 7 6 5 3 3 3 4 5 7 10 12 14 16 17 19 20 21 22 23 24 26 27 29 31 33 36 37 39 41 43 45 46 49 51 53 55 57 59 61 62 64 65 66 66 67
8 7 7 7 5 4 3 4 4 5 7 9 11 13 16 17 18 19 20 21 22 23 24 26 28 30 32 35 37 38 40 42 43 46 48 50 53 56 58 60 63 65 67 69 71 73 74 74 75
5 5 5 4 3 4 5 7 9 10 12 14 15 16 18 19 20 20 21 21 23 24 26 28 30 33 35 37 39 40 42 44 46 49 52 55 57 60 63 66 69 72 74 77 79 81 83 83 83
3 4 4 5 6 8 10 12 13 14 16 17 18 18 19 20 20 20 21 22 24 26 29 31 33 35 38 39 41 42 44 47 50 53 56 59 62 65 68 72 75 78 81 84 87 90 92 93 94
6 7 9 10 11 12 14 15 17 17 18 18 19 18 19 19 20 21 22 24 26 29 31 34 36 38 39 41 42 45 48 51 53 56 59 63 66 69 72 76 79 83 87 91 95 98 100 102 104
10 11 12 14 14 15 16 17 17 17 17 17 18 18 18 19 21 22 24 26 29 31 33 35 37 39 40 42 45 48 51 53 56 59 63 66 69 72 75 79 83 88 92 97 101 105 108 111 112
13 13 14 15 15 15 15 15 16 15 16 16 17 18 19 21 22 24 27 29 31 33 35 37 39 41 43 45 48 51 53 56 59 62 65 69 72 75 78 82 87 92 97 101 106 109 111 112 113
13 13 14 14 14 14 14 14 14 14 15 15 16 18 20 22 24 26 29 31 32 34 36 38 40 43 45 48 51 53 56 59 62 65 68 70 73 77 81 86 92 97 101 105 107 108 107 105 104
12 12 12 13 13 13 13 13 13 14 15 16 17 19 20 23 25 28 30 31 33 35 37 40 42 45 48 50 53 55 58 61 64 67 70 73 76 79 85 90 95 100 103 104 103 99 94 91 89
12 12 12 12 12 12 12 13 13 14 14 16 18 19 21 23 26 28 30 32 34 37 40 42 45 47 50 52 55 57 60 62 66 69 72 74 78 83 88 94 98 100 100 97 91 86 83 82 82
12 11 11 11 11 12 12 12 13 14 15 16 17 19 21 24 26 29 31 34 37 39 42 44 47 49 51 54 56 58 61 64 67 70 73 76 81 86 92 96 98 97 93 87 83 81 80 80 81
11 10 10 11 11 12 12 11 13 14 14 16 18 20 22 25 27 30 33 36 38 41 43 45 48 50 53 55 57 60 62 65 68 71 75 79 84 90 94 96 95 91 85 81 80 79 79 79 79
10 10 9 10 12 12 12 11 12 14 15 17 19 21 24 26 29 31 34 37 39 42 44 46 49 51 54 56 58 60 63 66 69 73 76 81 86 91 94 93 90 84 80 79 78 76 78 77 74
10 11 11 10 11 12 13 13 13 15 17 18 21 23 25 27 29 32 35 37 40 43 45 47 50 52 54 56 58 61 64 67 70 74 78 83 88 91 92 90 85 80 78 78 76 75 76 74 71
10 10 11 11 11 12 13 14 14 16 18 20 22 24 26 28 30 32 35 38 40 43 46 48 50 52 54 56 59 62 64 68 71 75 80 85 89 91 90 85 80 78 77 76 74 75 73 69 67
9 9 9 9 11 12 13 14 15 16 18 20 22 24 27 29 31 34 37 39 42 44 47 49 52 54 55 57 60 62 65 68 72 76 81 85 89 89 86 81 78 77 76 75 74 74 71 66 63
7 8 8 9 9 11 13 13 15 16 18 20 23 25 28 31 33 36 38 41 44 47 49 52 54 56 57 59 61 63 66 69 73 77 82 86 87 86 83 79 76 75 75 74 73 72 69 64 57
7 6 7 8 9 9 11 12 14 16 19 21 24 26 29 32 35 38 40 43 46 49 52 54 57 59 60 61 63 65 67 70 74 78 82 85 85 84 81 77 75 74 74 74 73 71 68 62 55
7 6 6 7 8 9 11 12 14 16 19 21 24 27 30 33 36 39 42 45 48 51 54 57 59 62 63 64 65 66 69 72 75 78 82 84 83 81 78 75 74 73 73 73 72 69 65 58 52
8 7 7 8 8 9 11 13 15 17 19 22 24 27 30 33 37 40 43 47 50 53 56 59 62 64 66 66 67 68 70 73 75 79 81 82 81 79 76 74 73 72 72 72 70 68 62 55 49
11 10 9 10 10 11 12 14 16 18 21 23 26 29 31 35 38 41 44 48 51 54 58 61 64 66 68 69 69 70 71 73 76 78 81 81 79 77 74 72 72 71 71 70 70 67 61 53 46
13 13 13 13 14 14 14 15 17 19 22 25 27 30 33 36 39 43 46 49 52 55 59 62 65 68 70 71 72 72 73 74 76 78 80 80 78 76 73 71 71 70 70 70 69 66 60 52 45
16 16 16 16 16 17 17 18 19 21 23 26 29 32 34 37 40 44 47 50 54 57 60 63 66 69 71 73 74 73 73 75 76 78 79 79 77 75 72 70 70 69 69 69 68 65 59 52 45
20 19 18 19 20 21 21 22 24 25 27 29 31 33 36 39 42 45 48 51 54 57 61 64 67 70 72 74 75 75 74 75 76 78 78 78 76 74 71 69 69 69 68 68 67 64 59 52 45
23 22 22 23 24 25 26 25 27 28 30 32 34 36 39 41 44 47 49 52 55 58 61 64 67 70 72 75 76 76 75 75 76 77 77 77 75 73 71 69 68 68 67 67 66 64 58 52 45
26 25 25 26 27 28 30 28 29 30 32 33 36 38 41 43 46 48 50 53 56 59 62 65 67 70 73 75 77 77 76 75 75 76 77 76 74 72 70 68 68 67 67 65 64 62 58 51 45
Wind_Direction
110 118 119 118 115 101 83 65 52 57 56 50 45 36 26 20 16 9 357 346 335 327 321 317 314 313 311 310 308 306 305 304 303 301 300 298 297 295 293 291 290 288 286 285 283 282 280 278 276
105 108 109 110 113 101 94 84 77 71 70 63 47 26 9 359 351 343 335 328 322 318 316 315 314 313 312 311 310 309 307 306 304 303 301 300 298 296 295 293 291 289 287 285 283 281 279 278 276
101 101 101 100 90 89 93 86 80 76 67 48 24 359 343 331 326 323 320 318 317 316 315 314 314 313 312 311 310 309 307 306 305 303 302 301 299 298 296 294 292 290 288 285 283 281 279 277 275
96 96 95 91 84 83 82 73 65 56 37 12 348 328 322 317 315 315 315 315 315 314 314 313 313 313 313 312 311 309 308 307 305 304 303 302 301 300 298 296 294 292 290 287 285 282 280 277 275
90 90 91 84 75 70 65 53 38 10 340 328 321 313 311 310 311 312 313 313 313 313 314 314 314 314 313 312 311 311 310 309 308 307 305 304 303 302 300 298 296 294 292 290 287 285 282 279 277
82 80 81 77 64 47 24 352 332 319 313 310 309 307 306 307 309 311 312 313 313 314 315 315 315 314 314 313 313 312 311 310 309 308 307 306 305 304 302 300 299 297 295 292 290 287 284 281 278
65 51 49 43 12 339 323 316 310 308 305 304 305 305 305 307 310 312 313 313 314 316 316 316 315 314 314 314 313 313 313 312 311 311 310 308 307 305 304 302 300 298 296 294 291 288 285 282 279
15 353 343 335 321 311 306 304 303 303 303 303 305 306 307 310 312 313 314 314 315 316 317 316 316 315 315 315 315 315 315 314 314 313 311 309 308 306 304 302 300 299 296 294 292 289 286 284 280
324 318 315 310 307 302 300 300 302 304 305 306 308 310 310 312 314 315 315 315 316 317 317 317 316 316 316 317 317 317 317 316 315 313 311 309 307 305 304 302 300 298 296 294 292 290 287 284 282
313 309 308 306 305 302 302 303 305 307 309 311 312 313 314 315 316 316 316 317 317 317 317 317 317 318 319 319 319 319 318 316 314 312 310 308 306 305 303 302 300 299 297 295 293 290 288 286 283
313 311 310 308 308 308 308 309 312 314 315 316 316 317 318 318 318 318 318 319 319 319 319 319 320 320 321 321 320 319 317 315 313 311 310 308 307 305 304 303 301 299 297 295 292 290 288 285 283
319 318 317 315 315 316 317 318 319 321 321 321 320 319 320 319 319 319 320 320 321 321 322 322 322 322 322 321 320 318 316 315 313 311 310 309 308 307 306 305 303 301 299 296 293 291 289 287 284
328 327 325 324 323 324 326 327 326 326 326 323 322 321 321 320 320 321 322 323 324 324 324 324 324 323 322 320 319 317 316 314 313 312 311 311 310 310 309 307 305 303 301 299 297 295 293 289 285
335 335 333 332 332 333 334 332 331 329 328 325 324 323 323 323 324 325 326 327 327 326 326 325 324 322 321 320 318 317 316 315 315 314 313 313 313 312 311 309 308 306 305 304 303 300 297 293 289
339 339 339 338 337 338 338 336 334 332 330 328 327 327 328 329 330 330 330 330 329 328 327 325 323 322 321 320 319 318 317 317 316 316 316 316 315 315 313 313 312 311 310 309 307 304 302 299 295
340 342 342 338 339 340 342 345 335 336 335 334 334 335 335 335 335 334 333 332 331 329 328 326 324 322 321 320 320 319 319 319 319 319 318 318 318 317 317 316 316 315 315 313 311 309 306 304 300
339 340 346 344 344 346 348 354 345 344 345 343 343 342 341 340 339 338 336 334 333 331 329 327 325 324 322 321 321 321 321 321 321 321 321 321 321 321 321 320 320 319 318 317 315 313 311 309 305
344 347 350 354 350 353 354 357 356 351 352 350 348 347 345 344 343 341 339 337 336 334 332 330 328 326 325 323 323 323 323 323 324 323 323 324 323 324 324 324 323 323 322 321 319 317 317 314 311
344 347 350 354 357 359 359 359 1 358 357 356 353 351 349 348 347 345 343 341 340 338 336 335 333 330 328 327 326 325 325 326 326 326 326 326 327 327 328 327 327 326 325 325 323 322 322 319 316
338 343 352 358 358 1 2 2 4 4 2 360 357 355 353 352 350 349 347 345 344 343 341 339 337 335 332 331 329 328 328 328 328 328 328 329 330 331 331 330 330 329 329 328 327 327 326 324 321
329 339 350 359 3 4 3 3 3 5 4 1 359 356 355 353 352 351 349 347 346 345 344 344 342 339 337 334 333 332 331 331 331 331 331 332 333 334 333 333 332 332 332 332 331 331 329 328 326
316 328 343 353 358 358 0 3 2 4 3 0 358 356 355 353 352 350 349 348 347 347 346 346 345 343 340 338 336 335 334 334 333 334 334 335 336 336 336 335 335 335 335 335 334 334 332 330 328
298 308 325 338 343 346 351 357 0 1 1 358 357 355 354 352 351 350 349 348 348 348 348 347 347 346 343 341 339 338 337 336 336 336 337 338 339 339 338 338 338 337 337 338 337 337 335 332 329
282 290 305 318 328 329 342 349 351 355 355 355 355 354 353 352 351 350 349 349 349 348 348 348 348 347 346 344 342 340 339 338 338 338 339 340 341 341 340 340 340 340 340 340 340 339 337 335 331
273 283 291 297 308 322 333 338 342 345 347 349 350 351 351 351 350 349 349 349 349 348 348 349 348 348 347 346 344 342 341 340 340 340 341 342 343 343 343 343 342 342 342 342 343 342 340 337 333
268 275 282 294 306 315 321 325 332 336 340 342 344 346 348 348 348 348 348 348 348 348 348 348 349 349 348 347 346 344 343 342 341 342 343 344 345 345 345 345 345 344 345 345 345 345 343 340 336
266 271 280 289 297 302 309 314 321 328 333 336 339 342 344 345 346 347 347 347 347 347 348 348 348 349 349 348 347 346 344 343 343 344 345 346 347 347 347 347 347 347 347 347 348 348 346 344 339
265 270 278 285 291 296 303 311 318 324 328 332 335 338 339 341 343 345 345 346 346 346 347 347 348 349 349 349 348 347 345 345 345 345 346 348 348 349 349 349 349 349 349 350 350 350 349 347 343
264 269 276 281 288 295 300 308 313 318 323 327 330 333 335 337 340 342 343 344 345 345 346 347 347 348 349 349 349 348 347 346 346 346 348 349 350 350 350 350 351 351 351 352 353 353 352 351 348
264 269 275 280 286 291 297 306 309 313 317 321 324 327 330 333 335 338 340 342 343 344 345 346 347 347 348 349 349 349 347 347 347 347 349 350 351 352 352 352 352 353 353 354 355 355 355 354 352
Height
5874 5875 5876 5877 5878 5878 5878 5878 5878 5879 5879 5879 5879 5879 5879 5880 5880 5882 5880 5878 5877 5877 5876 5875 5873 5872 5871 5869 5867 5866 5864 5862 5860 5858 5856 5855 5853 5851 5849 5847 5845 5844 5842 5840 5839 5838 5837 5837 5837
5876 5877 5878 5878 5878 5878 5879 5879 5879 5879 5880 5880 5880 5880 5880 5879 5879 5879 5878 5877 5876 5875 5874 5872 5870 5869 5867 5865 5864 5862 5859 5857 5855 5853 5851 5848 5846 5844 5842 5840 5838 5836 5834 5832 5830 5829 5828 5827 5827
5878 5879 5880 5880 5879 5879 5880 5880 5881 5880 5880 5880 5880 5880 5880 5880 5879 5878 5877 5876 5874 5873 5871 5869 5867 5865 5864 5862 5859 5857 5855 5852 5850 5847 5844 5842 5839 5836 5834 5831 5829 5826 5824 5822 5820 5818 5817 5816 5815
5880 5881 5882 5882 5881 5881 5882 5882 5882 5881 5881 5881 5881 5881 5880 5879 5878 5877 5875 5873 5872 5870 5868 5866 5864 5862 5860 5857 5855 5852 5849 5846 5843 5840 5837 5834 5831 5828 5825 5821 5818 5815 5812 5810 5808 5805 5804 5803 5802
5882 5883 5883 5883 5882 5883 5883 5883 5883 5882 5882 5881 5881 5880 5879 5877 5876 5874 5872 5871 5869 5867 5865 5863 5860 5858 5855 5852 5849 5846 5843 5839 5836 5832 5829 5825 5821 5818 5814 5810 5806 5803 5799 5796 5793 5790 5788 5787 5785
5885 5885 5884 5883 5884 5884 5884 5883 5883 5882 5881 5880 5880 5879 5877 5875 5873 5871 5869 5867 5865 5863 5861 5859 5856 5853 5850 5847 5843 5839 5836 5832 5828 5824 5819 5815 5810 5806 5801 5796 5792 5788 5783 5779 5776 5772 5770 5768 5766
5887 5886 5885 5884 5884 5884 5884 5883 5882 5881 5880 5879 5878 5876 5874 5872 5870 5868 5866 5864 5862 5860 5857 5854 5851 5848 5845 5841 5837 5832 5828 5824 5819 5814 5809 5804 5799 5793 5788 5782 5777 5771 5766 5760 5755 5751 5747 5744 5742
5887 5887 5885 5885 5884 5884 5883 5881 5880 5879 5878 5876 5875 5873 5871 5869 5867 5865 5863 5860 5858 5856 5853 5850 5846 5842 5838 5834 5829 5825 5820 5815 5810 5804 5799 5793 5787 5781 5774 5768 5761 5754 5747 5740 5733 5727 5721 5717 5714
5887 5888 5885 5884 5883 5883 5881 5879 5878 5876 5875 5873 5871 5869 5868 5865 5863 5861 5859 5857 5854 5851 5848 5844 5840 5836 5831 5826 5821 5816 5811 5805 5800 5794 5788 5782 5775 5769 5762 5753 5745 5736 5727 5718 5709 5700 5692 5686 5682
5886 5886 5884 5882 5881 5880 5878 5877 5875 5873 5871 5869 5867 5866 5864 5862 5859 5857 5855 5853 5850 5846 5842 5838 5833 5829 5824 5818 5813 5808 5802 5796 5790 5784 5778 5771 5763 5756 5747 5738 5728 5718 5707 5695 5683 5671 5661 5652 5646
5884 5883 5881 5880 5878 5877 5875 5874 5872 5870 5869 5867 5865 5862 5860 5858 5856 5853 5851 5848 5844 5840 5836 5831 5827 5821 5816 5811 5805 5799 5793 5787 5781 5774 5767 5759 5750 5741 5731 5721 5709 5697 5684 5669 5656 5642 5629 5618 5609
5882 5881 5879 5877 5876 5874 5873 5871 5869 5867 5866 5864 5862 5859 5857 5855 5852 5849 5846 5843 5839 5835 5830 5825 5820 5814 5808 5803 5797 5791 5784 5777 5770 5763 5755 5746 5736 5725 5714 5701 5687 5672 5656 5640 5624 5609 5596 5584 5575
5880 5879 5877 5875 5873 5872 5870 5868 5867 5865 5863 5861 5859 5856 5854 5851 5848 5845 5841 5838 5834 5829 5824 5818 5813 5807 5801 5795 5788 5782 5775 5767 5759 5750 5741 5731 5720 5708 5694 5679 5662 5644 5625 5606 5590 5575 5563 5552 5543
5879 5877 5875 5873 5871 5870 5868 5866 5865 5863 5861 5858 5856 5853 5851 5848 5844 5841 5837 5833 5828 5823 5818 5812 5806 5800 5794 5787 5780 5773 5765 5756 5747 5737 5727 5715 5703 5688 5673 5655 5635 5615 5595 5576 5560 5546 5534 5523 5514
5877 5876 5874 5872 5870 5868 5867 5865 5863 5860 5858 5856 5853 5850 5847 5844 5840 5837 5832 5828 5823 5818 5812 5806 5799 5793 5786 5779 5771 5763 5754 5745 5735 5723 5711 5698 5684 5668 5650 5630 5608 5587 5568 5550 5535 5521 5508 5496 5484
5876 5875 5873 5871 5869 5867 5867 5864 5861 5858 5855 5853 5850 5847 5844 5840 5837 5832 5828 5823 5818 5812 5806 5800 5793 5785 5778 5770 5762 5753 5743 5733 5721 5709 5696 5681 5664 5646 5627 5605 5584 5563 5544 5528 5512 5497 5483 5469 5455
5875 5873 5872 5870 5867 5865 5863 5861 5858 5855 5853 5850 5847 5844 5841 5837 5833 5828 5824 5818 5813 5807 5801 5794 5786 5778 5770 5761 5752 5742 5731 5720 5708 5694 5680 5664 5646 5626 5605 5583 5562 5542 5525 5508 5492 5476 5460 5444 5429
5873 5871 5869 5867 5865 5863 5860 5858 5856 5852 5850 5847 5844 5841 5838 5834 5829 5824 5819 5814 5808 5801 5794 5787 5779 5770 5761 5752 5742 5731 5720 5707 5694 5680 5664 5647 5627 5607 5585 5563 5542 5524 5507 5490 5473 5457 5440 5421 5405
5872 5870 5868 5866 5863 5861 5858 5856 5853 5850 5847 5845 5841 5838 5834 5830 5826 5821 5815 5809 5803 5796 5788 5780 5772 5762 5752 5742 5731 5720 5708 5695 5681 5665 5648 5630 5610 5589 5567 5545 5526 5508 5490 5472 5455 5438 5421 5404 5386
5871 5869 5867 5865 5862 5859 5857 5854 5851 5848 5845 5842 5839 5835 5831 5827 5822 5817 5811 5805 5798 5790 5782 5774 5764 5754 5743 5733 5721 5709 5696 5683 5668 5652 5634 5615 5594 5572 5550 5530 5511 5493 5475 5457 5439 5421 5404 5388 5371
5870 5868 5865 5863 5861 5858 5856 5853 5850 5847 5843 5840 5836 5832 5828 5823 5818 5813 5806 5799 5792 5784 5775 5766 5756 5745 5734 5722 5710 5698 5685 5671 5655 5638 5620 5600 5578 5557 5536 5516 5497 5479 5461 5443 5425 5407 5389 5374 5361
5868 5866 5864 5861 5859 5857 5855 5852 5849 5845 5841 5838 5834 5829 5824 5819 5814 5808 5801 5794 5786 5778 5769 5759 5748 5737 5725 5713 5700 5687 5673 5659 5643 5626 5607 5586 5565 5543 5523 5504 5485 5467 5449 5431 5413 5395 5376 5361 5349
5866 5864 5862 5860 5857 5855 5852 5850 5847 5843 5839 5836 5831 5826 5821 5815 5809 5803 5796 5788 5780 5771 5761 5751 5740 5728 5716 5703 5690 5676 5662 5647 5631 5614 5595 5574 5553 5532 5512 5493 5475 5457 5439 5421 5403 5385 5368 5352 5339
5864 5863 5861 5858 5855 5854 5850 5847 5844 5840 5836 5832 5828 5823 5817 5812 5805 5798 5791 5783 5774 5764 5754 5743 5732 5720 5707 5693 5680 5666 5652 5636 5620 5602 5583 5563 5543 5522 5503 5484 5466 5448 5430 5412 5395 5377 5360 5345 5333
5862 5861 5859 5856 5854 5851 5847 5844 5842 5837 5832 5828 5824 5819 5813 5807 5800 5793 5785 5777 5768 5758 5747 5736 5724 5712 5699 5685 5671 5656 5642 5626 5609 5592 5573 5554 5534 5514 5495 5477 5459 5441 5423 5405 5387 5370 5354 5339 5327
5859 5858 5856 5854 5850 5847 5844 5841 5839 5834 5829 5824 5819 5814 5808 5802 5795 5788 5780 5771 5762 5751 5741 5729 5717 5704 5691 5677 5662 5647 5632 5617 5600 5582 5564 5544 5525 5506 5488 5470 5452 5434 5417 5399 5381 5364 5348 5334 5322
5855 5853 5852 5850 5846 5844 5841 5838 5835 5830 5826 5821 5815 5809 5803 5797 5790 5782 5774 5765 5755 5745 5734 5723 5710 5697 5683 5669 5655 5639 5624 5608 5591 5574 5555 5536 5518 5499 5481 5464 5447 5429 5412 5394 5377 5360 5344 5330 5318
5851 5849 5848 5845 5842 5839 5837 5833 5829 5824 5820 5815 5810 5805 5799 5792 5785 5777 5768 5759 5749 5739 5728 5716 5704 5690 5677 5662 5648 5632 5616 5600 5584 5566 5548 5530 5511 5493 5476 5459 5442 5425 5407 5390 5373 5356 5340 5327 5315
5846 5845 5842 5840 5837 5833 5830 5830 5824 5819 5814 5809 5804 5798 5792 5786 5778 5770 5762 5753 5743 5733 5722 5710 5697 5684 5670 5656 5641 5625 5610 5594 5577 5560 5542 5524 5506 5488 5471 5454 5438 5421 5404 5387 5370 5354 5339 5325 5313
5840 5839 5837 5835 5832 5827 5823 5825 5818 5813 5808 5803 5798 5792 5786 5779 5772 5764 5756 5747 5737 5727 5716 5704 5691 5678 5664 5650 5635 5619 5603 5587 5571 5554 5537 5519 5501 5483 5466 5450 5434 5418 5402 5385 5369 5353 5338 5325 5313